Theta_e
286 288 290 294 306 305 306 304 298 293 294 293 293 291 290 290 290 291 290 290 291 289 288 288 287 287 287 286 286 284 283 283 280 278 278 285 283 283 284 283 282 286 286
285 286 287 289 293 294 296 293 293 295 294 293 292 292 291 290 290 292 290 290 291 288 287 287 287 287 285 285 285 283 284 284 281 280 277 283 282 285 283 283 284 285 282
285 286 286 287 288 289 290 290 291 293 293 292 293 293 292 290 290 291 291 289 290 289 287 287 287 286 284 284 285 283 282 283 279 279 278 279 283 280 281 283 284 285 284
285 285 285 286 286 287 287 287 289 290 290 293 293 293 292 289 289 288 288 288 288 287 287 287 287 287 286 285 285 284 283 283 280 280 279 279 279 280 279 279 280 280 281
282 282 283 285 286 286 286 286 286 287 287 289 288 288 288 288 288 288 288 288 287 286 287 286 286 286 287 287 286 284 284 283 283 282 281 281 282 282 281 280 279 280 280
281 280 281 282 284 284 285 285 285 286 286 286 286 287 287 287 290 291 289 287 287 287 286 285 286 285 287 289 288 288 286 284 283 282 282 281 282 281 280 278 277 278 276
279 279 280 281 281 281 283 284 284 285 285 286 286 286 286 286 290 291 290 287 287 286 286 285 284 285 286 287 288 289 288 288 287 284 282 282 281 281 280 279 278 277 276
276 277 278 279 280 280 280 281 282 282 283 284 285 286 286 286 290 291 289 287 287 286 286 285 285 284 286 285 285 285 284 285 286 285 284 283 283 282 281 280 279 275 274
273 273 274 275 275 278 279 279 280 281 281 282 283 283 284 285 290 290 288 285 285 284 285 285 284 284 286 287 284 283 283 283 287 288 287 287 287 287 283 278 272 272 270
273 274 274 273 272 273 275 277 279 280 280 281 282 282 284 284 289 290 287 285 283 283 284 284 284 285 287 287 283 282 281 282 282 281 281 286 287 286 287 282 276 269 269
272 272 272 272 273 273 272 274 274 276 278 277 279 279 281 283 287 289 288 284 283 282 282 282 283 286 287 287 285 283 282 282 283 280 278 279 279 280 282 283 279 276 273
270 270 269 269 273 273 268 271 271 273 274 275 275 275 278 280 285 287 287 286 286 283 282 282 283 286 286 287 285 285 285 283 281 279 278 277 276 276 277 279 281 282 281
267 267 267 268 271 272 269 269 270 271 273 273 275 273 276 278 280 287 286 287 285 282 282 283 285 286 286 286 287 285 284 282 279 278 278 278 278 278 277 276 276 276 278
265 267 268 268 269 269 272 272 271 271 272 274 275 274 274 276 276 278 282 284 284 283 284 284 284 284 285 283 284 285 283 282 280 279 279 278 277 276 278 279 278 278 277
266 268 269 269 267 269 271 271 273 273 274 274 275 275 274 274 277 279 280 282 282 282 281 281 280 278 277 277 278 278 278 278 278 277 276 276 275 276 276 274 276 277 276
264 266 267 268 267 269 268 270 276 277 278 278 279 278 277 279 281 282 283 284 284 284 280 278 277 277 276 276 275 275 275 275 275 274 272 272 272 272 272 273 274 275 274
256 261 263 265 266 265 266 266 268 272 279 278 279 280 280 280 282 283 283 284 285 283 277 277 276 276 276 275 275 273 272 272 272 273 272 270 269 267 268 267 269 271 271
252 257 258 261 260 261 262 263 263 267 268 270 275 278 279 280 283 283 284 284 279 278 277 276 276 276 276 275 274 272 271 270 270 271 270 270 270 269 265 265 264 264 262
254 256 257 257 259 260 260 260 260 261 263 267 267 273 271 280 281 282 283 276 276 275 275 275 275 275 274 274 273 273 272 270 269 268 267 267 266 265 262 260 260 260 258
250 255 259 256 255 257 258 258 259 259 259 260 262 265 266 269 270 272 273 274 275 275 275 275 275 275 275 274 274 273 272 271 270 268 267 265 264 262 260 257 255 257 255
250 253 256 257 255 254 256 256 257 256 258 258 260 261 271 265 266 267 268 270 272 273 274 275 275 275 274 274 274 273 272 271 269 268 266 266 263 262 258 256 254 252 253
250 251 251 254 257 255 256 256 256 255 255 256 258 261 275 262 262 263 266 268 268 269 271 272 272 273 273 273 272 272 271 269 267 266 264 263 262 260 256 254 252 251 251
250 251 252 252 253 255 255 255 256 254 255 256 256 257 259 259 260 261 262 263 265 267 268 271 271 269 269 270 269 268 267 267 267 265 264 261 259 258 255 253 250 250 251
251 253 255 254 252 253 253 252 252 254 254 254 253 255 259 256 258 261 261 261 263 263 265 266 266 266 265 264 263 263 262 259 260 262 262 260 257 256 252 250 249 248 248
256 256 258 259 259 256 254 254 253 251 252 254 254 253 253 253 254 254 256 258 260 261 261 261 261 261 262 260 256 254 254 261 256 256 255 255 255 253 251 249 247 247 247
258 258 259 260 260 260 260 261 260 260 259 259 256 254 254 256 255 254 253 252 253 253 253 252 253 255 255 255 256 257 257 261 256 255 254 255 254 250 249 250 248 247 247
Wind_Speed
6 6 7 8 9 8 9 7 7 7 9 10 12 11 11 11 11 11 9 11 13 10 6 10 9 7 6 4 3 3 3 3 4 2 1 1 2 3 2 1 2 3 3
7 5 5 6 6 8 8 6 7 10 11 14 14 14 14 14 14 16 15 13 15 14 12 10 10 6 7 6 5 5 5 4 4 4 2 3 3 4 3 2 3 3 3
6 5 4 5 5 3 4 5 7 8 9 10 13 15 14 13 13 14 16 14 14 14 14 14 13 12 9 7 6 6 5 3 3 3 2 2 2 2 2 2 3 4 3
6 5 5 5 4 4 4 2 4 7 9 10 11 13 12 12 12 11 11 12 10 9 9 9 10 12 12 11 9 8 6 6 3 3 2 2 2 2 2 2 2 1 3
7 7 7 6 5 4 4 3 4 3 4 6 7 6 7 10 10 11 11 11 12 11 10 10 11 11 14 13 9 9 10 6 5 3 2 2 3 2 3 2 2 2 3
8 8 7 7 7 6 4 3 2 3 4 5 5 6 7 6 14 18 14 11 12 12 13 11 10 12 16 19 16 17 13 10 8 5 5 5 6 3 3 3 3 1 2
9 9 9 7 7 6 5 3 2 1 2 5 6 7 7 6 15 18 18 10 11 11 12 12 10 8 11 12 17 19 16 16 11 8 8 6 4 5 4 3 2 3 3
10 10 10 8 7 6 5 5 3 2 1 2 4 5 6 7 18 19 19 11 10 11 12 13 13 12 11 11 10 9 8 8 8 5 6 5 5 5 4 5 5 1 2
9 9 8 8 7 7 7 5 4 2 2 1 1 4 5 5 16 18 18 10 10 11 11 11 13 13 18 18 10 9 8 7 8 10 9 10 9 9 7 4 1 4 2
9 8 7 6 6 5 5 5 3 3 3 2 2 1 5 5 16 19 16 8 10 9 11 11 17 15 22 21 12 11 10 8 8 4 2 8 10 8 12 6 4 3 2
6 5 6 6 5 5 5 4 3 3 4 4 4 4 3 3 10 18 15 7 7 8 8 8 7 17 19 19 14 9 8 8 9 5 3 3 2 2 2 5 5 4 3
6 6 5 5 5 4 4 4 4 3 4 4 3 3 4 5 6 11 12 10 12 8 8 6 7 16 17 17 13 14 13 10 5 5 3 3 3 2 2 3 4 5 4
6 5 5 5 5 5 4 4 3 3 3 2 2 2 2 3 3 8 11 13 13 7 6 10 15 16 16 13 14 17 12 6 6 5 5 4 3 3 3 2 1 2 2
5 5 4 4 5 4 3 3 2 2 2 1 1 2 0 0 2 2 2 6 11 8 12 9 10 9 9 7 8 10 5 5 6 5 4 2 3 2 3 2 2 2 1
5 5 5 3 3 3 2 2 2 1 1 0 1 2 2 2 3 5 3 4 5 7 7 5 4 4 5 5 5 5 5 5 4 3 3 3 3 3 2 2 2 2 2
4 4 4 3 3 2 2 2 5 3 3 3 3 3 1 6 8 11 12 10 16 18 5 5 5 5 6 6 6 4 2 4 3 3 3 3 3 3 2 1 2 1 1
3 5 4 4 3 2 2 1 1 4 6 2 2 1 3 4 7 10 14 14 17 15 4 5 5 5 5 5 5 4 3 2 4 4 3 3 3 2 3 1 1 2 2
4 6 3 4 3 3 2 2 1 1 1 2 7 2 2 5 6 7 10 13 7 5 5 5 5 5 5 5 4 3 3 4 3 3 4 3 3 3 2 2 2 3 2
4 4 4 3 3 3 1 1 0 1 1 1 1 3 6 1 6 8 10 3 4 4 4 4 4 4 4 5 4 4 4 4 3 4 3 3 3 3 2 2 2 3 3
3 6 5 3 3 2 2 1 2 2 1 2 1 2 2 3 2 2 2 3 4 4 3 4 4 4 4 4 4 5 4 4 4 3 3 3 3 3 3 3 3 3 3
2 3 4 2 2 3 3 3 3 2 3 2 3 3 6 2 2 2 2 2 3 3 3 4 4 4 4 4 5 5 4 4 4 4 4 3 4 3 2 3 3 2 3
3 3 2 2 2 2 3 3 2 2 3 3 3 3 9 3 2 2 1 2 2 2 2 3 3 3 4 4 4 4 4 4 4 4 4 3 3 3 3 3 3 2 2
2 3 3 3 2 3 1 1 2 2 3 3 3 2 1 1 2 2 2 2 2 3 2 3 3 3 2 3 3 4 4 4 4 4 5 4 4 4 3 3 3 2 2
3 3 4 4 3 2 3 3 3 4 3 3 3 3 3 3 3 3 2 2 2 2 2 3 3 4 3 2 2 2 2 2 3 5 7 6 5 4 3 3 3 3 3
2 3 4 5 4 3 3 3 3 3 3 3 3 3 3 2 2 3 2 2 1 2 2 2 2 3 4 5 4 5 4 6 5 5 4 6 7 7 5 4 4 2 2
4 4 5 4 4 4 4 5 4 4 4 4 4 3 4 4 4 4 3 3 3 3 3 2 4 6 7 5 6 7 6 7 6 7 6 6 6 4 4 5 5 3 3
Wind_Direction
357 343 327 327 198 186 194 181 174 149 158 163 170 164 173 176 174 175 180 173 179 175 172 180 182 160 167 154 139 125 122 122 130 281 126 99 161 159 255 255 260 237 254
342 328 311 301 289 180 187 175 160 172 169 168 172 177 182 187 184 185 179 180 184 184 183 178 179 163 160 153 153 155 156 142 129 151 171 163 167 197 210 202 242 243 244
335 338 357 357 350 291 181 165 163 158 169 172 177 187 191 190 191 194 186 183 186 186 181 185 180 169 170 171 168 161 147 129 118 124 157 147 177 179 194 197 221 239 242
353 9 22 15 10 29 18 67 154 160 164 177 186 187 187 181 183 182 179 172 181 178 175 183 182 185 177 171 170 165 147 141 126 118 131 144 136 228 137 175 272 272 269
16 19 13 1 7 31 46 69 78 85 150 166 168 164 166 175 181 181 184 183 182 174 173 174 179 179 173 172 165 167 160 154 149 153 138 139 181 167 185 198 199 228 269
25 22 12 15 14 12 19 38 86 130 135 134 148 161 171 182 187 188 180 181 183 185 178 172 168 164 168 167 170 170 170 163 167 167 182 201 203 185 170 185 177 134 307
22 19 16 16 21 14 5 24 64 140 137 169 171 170 181 179 190 191 187 183 182 185 180 166 155 165 167 167 169 170 175 178 175 174 183 192 173 187 166 171 184 159 204
18 17 14 11 18 17 22 23 15 27 139 160 180 187 184 189 195 194 184 178 180 177 171 166 159 156 174 166 162 160 168 181 193 176 188 174 174 176 171 182 182 189 347
17 12 5 9 16 16 21 11 7 23 32 68 146 169 182 194 199 190 173 172 170 165 161 159 154 159 166 162 162 169 178 187 191 183 189 192 199 199 175 117 158 107 290
8 1 357 360 13 15 6 8 1 19 31 38 88 119 186 191 198 180 168 168 166 160 153 155 158 164 173 178 178 178 185 184 172 159 173 219 219 218 195 181 161 149 161
352 353 359 358 2 5 359 358 4 24 51 39 43 25 44 143 169 168 161 164 162 154 152 156 165 166 176 184 175 177 180 144 175 162 156 153 165 163 167 184 183 154 171
349 358 360 0 1 2 24 357 8 42 52 42 44 25 19 32 140 159 163 156 158 152 152 148 152 169 179 185 172 175 169 154 152 155 160 164 166 194 169 205 197 210 216
348 348 344 356 1 358 13 4 15 27 56 44 56 35 18 27 29 177 161 151 141 129 139 152 163 174 179 185 179 180 177 163 164 167 179 180 178 184 126 134 204 218 243
338 332 324 360 352 360 353 342 12 21 65 73 114 113 55 48 59 28 100 155 147 136 152 156 167 167 170 156 169 176 160 160 166 173 171 149 114 125 157 151 161 176 177
329 336 346 342 342 342 342 312 342 318 338 35 241 152 181 214 204 177 168 143 141 143 131 144 144 123 128 129 122 118 123 133 135 116 113 122 117 129 154 163 152 156 191
330 335 331 326 316 309 327 309 339 353 349 347 356 159 263 225 210 195 188 171 165 153 135 138 136 138 140 139 132 116 98 119 114 118 123 130 138 146 153 111 106 137 194
309 310 308 311 315 302 308 328 301 338 3 264 297 297 212 293 202 202 195 182 165 143 135 146 150 148 144 143 142 140 141 141 133 134 126 129 125 112 125 132 124 178 197
301 283 274 285 280 292 281 287 308 192 234 315 2 337 249 272 180 140 141 145 124 119 138 145 146 142 143 144 143 136 127 132 118 127 122 144 148 135 132 148 154 167 171
301 293 287 286 284 265 282 288 278 326 283 209 356 347 355 272 153 164 152 96 127 128 129 131 134 142 146 141 141 134 137 145 134 137 142 151 150 134 144 160 159 169 128
275 274 272 272 273 298 278 261 281 247 269 262 254 240 318 32 26 38 42 125 135 148 149 150 148 146 147 145 142 141 137 137 143 150 148 152 158 152 165 166 169 163 190
264 284 298 301 267 248 236 226 229 222 234 234 237 230 210 166 204 181 140 113 129 143 154 149 140 137 136 136 138 144 151 153 155 157 160 167 154 167 157 153 147 143 136
253 269 285 270 265 273 259 244 223 214 224 227 268 282 244 147 165 217 199 165 162 145 137 129 129 135 142 145 148 152 157 159 155 156 162 162 163 151 137 122 117 110 123
247 278 291 287 261 258 243 223 234 232 239 235 229 245 275 236 209 190 197 194 161 147 134 130 132 132 126 140 145 152 163 181 181 159 162 160 156 149 139 135 141 130 140
241 246 263 274 289 271 252 252 238 228 220 226 228 238 231 205 209 205 204 198 151 135 126 124 128 141 139 135 137 160 150 149 151 171 156 154 154 140 130 123 147 131 139
248 265 265 269 260 253 256 252 252 253 242 217 220 213 230 239 227 238 218 200 164 144 163 148 139 167 180 179 175 174 181 156 154 142 130 132 147 154 142 131 138 117 113
244 250 256 260 258 252 247 254 246 240 241 242 235 228 210 208 213 205 213 201 194 199 194 189 188 189 189 191 194 183 175 151 144 140 134 131 136 136 131 135 139 126 131